Location: Julian California
(33.0790°N, 116.6010°W)
Time: 05:37:36
(UTC-07:00)

NOSS 8 (A) - Pass Details

Date: 19 May 2017
Orbit: 429 x 1735 km, 63.3° (Epoch: 14 June)

Event Time Altitude Azimuth Distance (km) Brightness Sun altitude
Rises 20:34:45 0° 207° (SSW) 2,600 8.2 -10.5°
Reaches altitude 10° 20:37:00 10° 207° (SSW) 1,620 7.2 -10.9°
Maximum altitude 20:40:27 82° 118° (ESE) 442 4.2 -11.5°
Drops below altitude 10° 20:43:42 10° 32° (NNE) 1,526 7.1 -12.1°
Sets 20:45:47 0° 32° (NNE) 2,430 8.2 -12.4°
